Time,TemperatureF,DewpointF,PressureIn,WindDirection,WindDirectionDegrees,WindSpeedMPH,WindSpeedGustMPH,Humidity,HourlyPrecipIn,Conditions,Clouds,dailyrainin,SolarRadiationWatts/m^2,SoftwareType,DateUTC
2013-10-26 00:00:00,77.6,64.5,30.14,NE,52,5.0,6.0,64,0.00,,,0.00,0,Wunderground v.1.15,2013-10-26 04:00:00,
2013-10-26 00:02:00,77.6,64.5,30.14,NE,36,5.0,7.0,64,0.00,,,0.00,0,Wunderground v.1.15,2013-10-26 04:02:00,
2013-10-26 00:06:00,77.5,63.9,30.13,NNE,26,4.0,7.0,63,0.00,,,0.00,0,Wunderground v.1.15,2013-10-26 04:06:00,
2013-10-26 00:08:00,77.5,63.9,30.13,North,360,4.0,7.0,63,0.00,,,0.00,0,Wunderground v.1.15,2013-10-26 04:08:00,
2013-10-26 00:14:00,77.5,63.5,30.13,NE,48,3.0,4.0,62,0.00,,,0.00,0,Wunderground v.1.15,2013-10-26 04:14:00,
2013-10-26 00:20:00,77.4,63.8,30.13,NE,35,2.0,5.0,63,0.00,,,0.00,0,Wunderground v.1.15,2013-10-26 04:20:00,
2013-10-26 00:24:00,77.4,63.8,30.13,NNE,33,3.0,5.0,63,0.00,,,0.00,0,Wunderground v.1.15,2013-10-26 04:24:00,
2013-10-26 00:30:00,77.4,63.8,30.13,NE,44,4.0,4.0,63,0.00,,,0.00,0,Wunderground v.1.15,2013-10-26 04:30:00,
2013-10-26 00:34:00,77.4,63.8,30.13,NE,45,4.0,4.0,63,0.00,,,0.00,0,Wunderground v.1.15,2013-10-26 04:34:00,
2013-10-26 00:40:00,77.3,64.2,30.12,NNE,17,4.0,4.0,64,0.00,,,0.00,0,Wunderground v.1.15,2013-10-26 04:40:00,
2013-10-26 00:46:00,77.3,63.7,30.13,NNE,12,5.0,8.0,63,0.00,,,0.00,0,Wunderground v.1.15,2013-10-26 04:46:00,
2013-10-26 00:52:00,77.3,64.2,30.12,ENE,60,4.0,8.0,64,0.00,,,0.00,0,Wunderground v.1.15,2013-10-26 04:52:00,
2013-10-26 00:58:00,77.3,64.6,30.12,NNE,30,5.0,13.0,65,0.00,,,0.00,0,Wunderground v.1.15,2013-10-26 04:58:00,
2013-10-26 01:04:00,77.2,64.5,30.12,NE,46,5.0,6.0,65,0.00,,,0.00,0,Wunderground v.1.15,2013-10-26 05:04:00,
2013-10-26 01:10:00,77.2,64.5,30.11,North,9,4.0,4.0,65,0.00,,,0.00,0,Wunderground v.1.15,2013-10-26 05:10:00,
2013-10-26 01:16:00,77.1,64.4,30.11,NE,44,4.0,4.0,65,0.00,,,0.00,0,Wunderground v.1.15,2013-10-26 05:16:00,
2013-10-26 01:22:00,77.1,64.4,30.11,ENE,58,5.0,12.0,65,0.00,,,0.00,0,Wunderground v.1.15,2013-10-26 05:22:00,
2013-10-26 01:28:00,77.1,64.4,30.11,ENE,72,6.0,12.0,65,0.00,,,0.00,0,Wunderground v.1.15,2013-10-26 05:28:00,
2013-10-26 01:34:00,77.1,64.0,30.11,NE,55,6.0,7.0,64,0.00,,,0.00,0,Wunderground v.1.15,2013-10-26 05:34:00,
2013-10-26 01:40:00,77.1,63.5,30.10,NE,38,7.0,7.0,63,0.00,,,0.00,0,Wunderground v.1.15,2013-10-26 05:40:00,
2013-10-26 01:46:00,77.1,63.5,30.10,NE,38,6.0,9.0,63,0.00,,,0.00,0,Wunderground v.1.15,2013-10-26 05:46:00,
2013-10-26 01:52:00,77.1,63.5,30.11,East,90,6.0,7.0,63,0.00,,,0.00,0,Wunderground v.1.15,2013-10-26 05:52:00,
2013-10-26 01:58:00,77.1,64.0,30.10,NE,55,4.0,14.0,64,0.00,,,0.00,0,Wunderground v.1.15,2013-10-26 05:58:00,
2013-10-26 02:04:00,77.0,63.4,30.10,NE,51,4.0,5.0,63,0.00,,,0.00,0,Wunderground v.1.15,2013-10-26 06:04:00,
2013-10-26 02:10:00,76.9,63.3,30.10,East,81,5.0,7.0,63,0.00,,,0.00,0,Wunderground v.1.15,2013-10-26 06:10:00,
2013-10-26 02:16:00,76.9,62.9,30.09,NE,38,4.0,8.0,62,0.00,,,0.00,0,Wunderground v.1.15,2013-10-26 06:16:00,
2013-10-26 02:22:00,76.9,63.3,30.09,NNE,18,5.0,6.0,63,0.00,,,0.00,0,Wunderground v.1.15,2013-10-26 06:22:00,
2013-10-26 02:28:00,76.9,63.3,30.09,East,84,3.0,10.0,63,0.00,,,0.00,0,Wunderground v.1.15,2013-10-26 06:28:00,
2013-10-26 02:34:00,76.9,62.9,30.09,East,82,3.0,12.0,62,0.00,,,0.00,0,Wunderground v.1.15,2013-10-26 06:34:00,
2013-10-26 02:40:00,76.9,62.4,30.08,NE,53,4.0,4.0,61,0.00,,,0.00,0,Wunderground v.1.15,2013-10-26 06:40:00,
2013-10-26 02:46:00,76.9,62.9,30.08,ENE,78,2.0,11.0,62,0.00,,,0.00,0,Wunderground v.1.15,2013-10-26 06:46:00,
2013-10-26 02:52:00,76.8,62.8,30.08,East,80,3.0,10.0,62,0.00,,,0.00,0,Wunderground v.1.15,2013-10-26 06:52:00,
2013-10-26 02:58:00,76.9,62.9,30.08,East,85,6.0,12.0,62,0.00,,,0.00,0,Wunderground v.1.15,2013-10-26 06:58:00,
2013-10-26 03:04:00,76.8,62.8,30.07,NE,55,6.0,8.0,62,0.00,,,0.00,0,Wunderground v.1.15,2013-10-26 07:04:00,
2013-10-26 03:10:00,76.8,62.8,30.07,NNE,21,7.0,7.0,62,0.00,,,0.00,0,Wunderground v.1.15,2013-10-26 07:10:00,
2013-10-26 03:16:00,76.8,63.2,30.08,NE,48,6.0,7.0,63,0.00,,,0.00,0,Wunderground v.1.15,2013-10-26 07:16:00,
2013-10-26 03:22:00,76.7,62.7,30.08,NE,41,4.0,7.0,62,0.00,,,0.00,0,Wunderground v.1.15,2013-10-26 07:22:00,
2013-10-26 03:28:00,76.6,63.1,30.08,NNE,20,4.0,7.0,63,0.00,,,0.00,0,Wunderground v.1.15,2013-10-26 07:28:00,
2013-10-26 03:34:00,76.7,62.7,30.08,ENE,69,5.0,9.0,62,0.00,,,0.00,0,Wunderground v.1.15,2013-10-26 07:34:00,
2013-10-26 03:40:00,76.7,62.7,30.08,ENE,65,3.0,3.0,62,0.00,,,0.00,0,Wunderground v.1.15,2013-10-26 07:40:00,
2013-10-26 03:46:00,76.6,62.6,30.08,ENE,76,2.0,9.0,62,0.00,,,0.00,0,Wunderground v.1.15,2013-10-26 07:46:00,
2013-10-26 03:52:00,76.6,62.6,30.09,North,9,3.0,7.0,62,0.00,,,0.00,0,Wunderground v.1.15,2013-10-26 07:52:00,
2013-10-26 03:58:00,76.6,62.6,30.09,ENE,71,3.0,15.0,62,0.00,,,0.00,0,Wunderground v.1.15,2013-10-26 07:58:00,
2013-10-26 04:04:00,76.6,63.1,30.08,East,92,3.0,3.0,63,0.00,,,0.00,0,Wunderground v.1.15,2013-10-26 08:04:00,
2013-10-26 04:10:00,76.7,63.6,30.08,NNE,26,4.0,6.0,64,0.00,,,0.00,0,Wunderground v.1.15,2013-10-26 08:10:00,
2013-10-26 04:16:00,76.6,63.5,30.07,East,90,3.0,6.0,64,0.00,,,0.00,0,Wunderground v.1.15,2013-10-26 08:16:00,
2013-10-26 04:22:00,76.5,63.4,30.07,ENE,75,3.0,3.0,64,0.00,,,0.00,0,Wunderground v.1.15,2013-10-26 08:22:00,
2013-10-26 04:28:00,76.6,63.5,30.08,NE,56,3.0,8.0,64,0.00,,,0.00,0,Wunderground v.1.15,2013-10-26 08:28:00,
2013-10-26 04:34:00,76.6,63.5,30.07,ENE,59,5.0,6.0,64,0.00,,,0.00,0,Wunderground v.1.15,2013-10-26 08:34:00,
2013-10-26 04:40:00,76.6,63.5,30.07,ENE,63,4.0,11.0,64,0.00,,,0.00,0,Wunderground v.1.15,2013-10-26 08:40:00,
2013-10-26 04:46:00,76.6,63.5,30.07,ENE,70,4.0,11.0,64,0.00,,,0.00,0,Wunderground v.1.15,2013-10-26 08:46:00,
2013-10-26 04:52:00,76.6,63.5,30.07,NE,56,4.0,4.0,64,0.00,,,0.00,0,Wunderground v.1.15,2013-10-26 08:52:00,
2013-10-26 04:58:00,76.6,63.5,30.07,NE,41,4.0,5.0,64,0.00,,,0.00,0,Wunderground v.1.15,2013-10-26 08:58:00,
2013-10-26 05:04:00,76.6,62.6,30.07,ENE,78,4.0,10.0,62,0.00,,,0.00,0,Wunderground v.1.15,2013-10-26 09:04:00,
2013-10-26 05:10:00,76.6,63.1,30.07,ENE,63,4.0,4.0,63,0.00,,,0.00,0,Wunderground v.1.15,2013-10-26 09:10:00,
2013-10-26 05:16:00,76.6,63.1,30.07,ENE,62,4.0,9.0,63,0.00,,,0.00,0,Wunderground v.1.15,2013-10-26 09:16:00,
2013-10-26 05:22:00,76.6,62.6,30.07,North,5,5.0,6.0,62,0.00,,,0.00,0,Wunderground v.1.15,2013-10-26 09:22:00,
2013-10-26 05:28:00,76.6,62.1,30.06,ENE,63,4.0,7.0,61,0.00,,,0.00,0,Wunderground v.1.15,2013-10-26 09:28:00,
2013-10-26 05:34:00,76.7,63.2,30.07,East,84,3.0,7.0,63,0.00,,,0.00,0,Wunderground v.1.15,2013-10-26 09:34:00,
2013-10-26 05:40:00,76.7,63.6,30.07,NE,41,4.0,5.0,64,0.00,,,0.00,0,Wunderground v.1.15,2013-10-26 09:40:00,
2013-10-26 05:46:00,76.7,62.7,30.07,NNE,26,5.0,7.0,62,0.00,,,0.00,0,Wunderground v.1.15,2013-10-26 09:46:00,
2013-10-26 05:52:00,76.6,63.1,30.07,ENE,62,3.0,8.0,63,0.00,,,0.00,0,Wunderground v.1.15,2013-10-26 09:52:00,
2013-10-26 05:58:00,76.6,63.5,30.07,ESE,106,4.0,13.0,64,0.00,,,0.00,0,Wunderground v.1.15,2013-10-26 09:58:00,
2013-10-26 06:04:00,76.6,64.0,30.07,NE,54,3.0,6.0,65,0.00,,,0.00,0,Wunderground v.1.15,2013-10-26 10:04:00,
2013-10-26 06:10:00,76.5,63.9,30.07,ENE,70,3.0,3.0,65,0.00,,,0.00,0,Wunderground v.1.15,2013-10-26 10:10:00,
2013-10-26 06:16:00,76.5,63.9,30.08,NE,55,3.0,8.0,65,0.00,,,0.00,0,Wunderground v.1.15,2013-10-26 10:16:00,
2013-10-26 06:22:00,76.4,64.2,30.08,NNE,32,3.0,3.0,66,0.00,,,0.00,0,Wunderground v.1.15,2013-10-26 10:22:00,
2013-10-26 06:28:00,76.4,64.2,30.09,East,86,3.0,7.0,66,0.00,,,0.00,0,Wunderground v.1.15,2013-10-26 10:28:00,
2013-10-26 06:34:00,76.4,63.8,30.09,NE,52,3.0,5.0,65,0.00,,,0.00,0,Wunderground v.1.15,2013-10-26 10:34:00,
2013-10-26 06:40:00,76.5,64.3,30.09,ENE,78,3.0,3.0,66,0.00,,,0.00,0,Wunderground v.1.15,2013-10-26 10:40:00,
2013-10-26 06:46:00,76.5,64.3,30.10,NNE,26,3.0,6.0,66,0.00,,,0.00,0,Wunderground v.1.15,2013-10-26 10:46:00,
2013-10-26 06:52:00,76.5,64.7,30.10,East,88,2.0,8.0,67,0.00,,,0.00,0,Wunderground v.1.15,2013-10-26 10:52:00,
2013-10-26 06:58:00,76.5,64.7,30.10,East,90,2.0,12.0,67,0.00,,,0.00,0,Wunderground v.1.15,2013-10-26 10:58:00,
2013-10-26 07:04:00,76.4,64.6,30.11,ENE,60,1.0,3.0,67,0.00,,,0.00,0,Wunderground v.1.15,2013-10-26 11:04:00,
2013-10-26 07:10:00,76.5,64.7,30.11,NNE,28,3.0,3.0,67,0.00,,,0.00,0,Wunderground v.1.15,2013-10-26 11:10:00,
2013-10-26 07:16:00,76.6,64.8,30.11,NNE,21,3.0,4.0,67,0.00,,,0.00,0,Wunderground v.1.15,2013-10-26 11:16:00,
2013-10-26 07:22:00,76.6,64.8,30.11,NE,48,1.0,2.0,67,0.00,,,0.00,0,Wunderground v.1.15,2013-10-26 11:22:00,
2013-10-26 07:28:00,76.6,64.4,30.11,East,79,1.0,7.0,66,0.00,,,0.00,0,Wunderground v.1.15,2013-10-26 11:28:00,
2013-10-26 07:34:00,76.7,64.5,30.12,NE,51,3.0,3.0,66,0.00,,,0.00,5,Wunderground v.1.15,2013-10-26 11:34:00,
2013-10-26 07:40:00,76.8,65.0,30.12,East,86,2.0,8.0,67,0.00,,,0.00,7,Wunderground v.1.15,2013-10-26 11:40:00,
2013-10-26 07:46:00,76.8,65.0,30.12,East,81,2.0,8.0,67,0.00,,,0.00,14,Wunderground v.1.15,2013-10-26 11:46:00,
2013-10-26 07:52:00,76.8,65.0,30.12,NE,51,2.0,8.0,67,0.00,,,0.00,19,Wunderground v.1.15,2013-10-26 11:52:00,
2013-10-26 07:58:00,76.9,65.5,30.12,East,101,2.0,10.0,68,0.00,,,0.00,37,Wunderground v.1.15,2013-10-26 11:58:00,
2013-10-26 08:04:00,77.0,65.6,30.12,ESE,117,2.0,3.0,68,0.00,,,0.00,49,Wunderground v.1.15,2013-10-26 12:04:00,
2013-10-26 08:10:00,77.1,65.7,30.12,NE,56,2.0,2.0,68,0.00,,,0.00,47,Wunderground v.1.15,2013-10-26 12:10:00,
2013-10-26 08:16:00,77.0,65.2,30.12,ENE,75,1.0,2.0,67,0.00,,,0.00,51,Wunderground v.1.15,2013-10-26 12:16:00,
2013-10-26 08:22:00,77.0,65.2,30.12,East,86,3.0,8.0,67,0.00,,,0.00,53,Wunderground v.1.15,2013-10-26 12:22:00,
2013-10-26 08:28:00,77.0,65.2,30.12,NE,34,3.0,8.0,67,0.00,,,0.00,60,Wunderground v.1.15,2013-10-26 12:28:00,
2013-10-26 08:34:00,77.0,64.8,30.12,ENE,57,3.0,4.0,66,0.00,,,0.00,81,Wunderground v.1.15,2013-10-26 12:34:00,
2013-10-26 08:40:00,77.0,64.8,30.12,NE,56,3.0,3.0,66,0.00,,,0.00,105,Wunderground v.1.15,2013-10-26 12:40:00,
2013-10-26 08:46:00,77.1,64.9,30.12,NE,52,2.0,5.0,66,0.00,,,0.00,171,Wunderground v.1.15,2013-10-26 12:46:00,
2013-10-26 08:52:00,77.2,64.5,30.12,ENE,67,3.0,10.0,65,0.00,,,0.00,135,Wunderground v.1.15,2013-10-26 12:52:00,
2013-10-26 08:58:00,77.6,64.9,30.12,ENE,58,4.0,13.0,65,0.00,,,0.00,179,Wunderground v.1.15,2013-10-26 12:58:00,
2013-10-26 09:04:00,78.2,65.5,30.12,ESE,104,2.0,8.0,65,0.00,,,0.00,436,Wunderground v.1.15,2013-10-26 13:04:00,
2013-10-26 09:10:00,78.7,65.5,30.12,ENE,73,4.0,5.0,64,0.00,,,0.00,371,Wunderground v.1.15,2013-10-26 13:10:00,
2013-10-26 09:16:00,78.6,65.4,30.13,East,85,5.0,7.0,64,0.00,,,0.00,132,Wunderground v.1.15,2013-10-26 13:16:00,
2013-10-26 09:22:00,78.2,65.0,30.13,ENE,71,4.0,4.0,64,0.00,,,0.00,285,Wunderground v.1.15,2013-10-26 13:22:00,
2013-10-26 09:28:00,78.3,65.1,30.13,ENE,69,4.0,5.0,64,0.00,,,0.00,434,Wunderground v.1.15,2013-10-26 13:28:00,
2013-10-26 09:34:00,78.4,65.2,30.13,ENE,61,4.0,5.0,64,0.00,,,0.00,185,Wunderground v.1.15,2013-10-26 13:34:00,
2013-10-26 09:40:00,78.8,65.6,30.13,NE,55,4.0,4.0,64,0.00,,,0.00,455,Wunderground v.1.15,2013-10-26 13:40:00,
2013-10-26 09:46:00,79.3,66.1,30.13,NNE,32,3.0,4.0,64,0.00,,,0.00,251,Wunderground v.1.15,2013-10-26 13:46:00,
2013-10-26 09:52:00,79.1,65.4,30.13,ENE,66,4.0,5.0,63,0.00,,,0.00,188,Wunderground v.1.15,2013-10-26 13:52:00,
2013-10-26 09:58:00,78.9,65.2,30.14,ENE,78,5.0,11.0,63,0.00,,,0.00,540,Wunderground v.1.15,2013-10-26 13:58:00,
2013-10-26 10:04:00,79.1,65.4,30.14,ENE,67,5.0,9.0,63,0.00,,,0.00,299,Wunderground v.1.15,2013-10-26 14:04:00,
2013-10-26 10:10:00,79.1,65.4,30.14,ENE,68,4.0,5.0,63,0.00,,,0.00,613,Wunderground v.1.15,2013-10-26 14:10:00,
2013-10-26 10:16:00,79.4,65.2,30.14,East,87,3.0,11.0,62,0.00,,,0.00,434,Wunderground v.1.15,2013-10-26 14:16:00,
2013-10-26 10:22:00,79.4,65.2,30.14,ENE,74,5.0,5.0,62,0.00,,,0.00,283,Wunderground v.1.15,2013-10-26 14:22:00,
2013-10-26 10:28:00,79.4,65.2,30.14,ENE,63,3.0,5.0,62,0.00,,,0.00,258,Wunderground v.1.15,2013-10-26 14:28:00,
2013-10-26 10:34:00,79.3,65.1,30.14,ENE,78,2.0,9.0,62,0.00,,,0.00,269,Wunderground v.1.15,2013-10-26 14:34:00,
2013-10-26 10:40:00,79.4,65.7,30.14,ENE,63,3.0,3.0,63,0.00,,,0.00,350,Wunderground v.1.15,2013-10-26 14:40:00,
2013-10-26 10:46:00,79.6,65.9,30.14,ESE,103,4.0,8.0,63,0.00,,,0.00,343,Wunderground v.1.15,2013-10-26 14:46:00,
2013-10-26 10:52:00,79.8,65.6,30.14,NE,51,4.0,6.0,62,0.00,,,0.00,281,Wunderground v.1.15,2013-10-26 14:52:00,
2013-10-26 10:58:00,80.0,65.8,30.14,NNE,21,4.0,11.0,62,0.00,,,0.00,313,Wunderground v.1.15,2013-10-26 14:58:00,
2013-10-26 11:04:00,80.3,66.1,30.14,ENE,71,2.0,8.0,62,0.00,,,0.00,638,Wunderground v.1.15,2013-10-26 15:04:00,
2013-10-26 11:10:00,80.5,65.8,30.14,ENE,71,2.0,2.0,61,0.00,,,0.00,315,Wunderground v.1.15,2013-10-26 15:10:00,
2013-10-26 11:16:00,80.3,64.7,30.14,NE,39,4.0,5.0,59,0.00,,,0.00,327,Wunderground v.1.15,2013-10-26 15:16:00,
2013-10-26 11:22:00,80.5,65.8,30.14,ENE,74,4.0,7.0,61,0.00,,,0.00,666,Wunderground v.1.15,2013-10-26 15:22:00,
2013-10-26 11:28:00,80.9,66.2,30.15,ENE,74,2.0,7.0,61,0.00,,,0.00,788,Wunderground v.1.15,2013-10-26 15:28:00,
2013-10-26 11:34:00,81.4,66.2,30.15,East,91,2.0,7.0,60,0.00,,,0.00,821,Wunderground v.1.15,2013-10-26 15:34:00,
2013-10-26 11:40:00,81.4,65.7,30.14,ENE,59,4.0,7.0,59,0.00,,,0.00,795,Wunderground v.1.15,2013-10-26 15:40:00,
2013-10-26 11:46:00,81.4,65.7,30.14,NE,46,4.0,7.0,59,0.00,,,0.00,770,Wunderground v.1.15,2013-10-26 15:46:00,
2013-10-26 11:52:00,81.4,65.2,30.14,NE,49,4.0,6.0,58,0.00,,,0.00,745,Wunderground v.1.15,2013-10-26 15:52:00,
2013-10-26 11:58:00,81.2,64.5,30.14,NE,42,5.0,9.0,57,0.00,,,0.00,758,Wunderground v.1.15,2013-10-26 15:58:00,
2013-10-26 12:04:00,81.1,65.4,30.14,NE,47,5.0,12.0,59,0.00,,,0.00,758,Wunderground v.1.15,2013-10-26 16:04:00,
2013-10-26 12:10:00,81.2,65.0,30.13,NNE,24,5.0,5.0,58,0.00,,,0.00,577,Wunderground v.1.15,2013-10-26 16:10:00,
2013-10-26 12:16:00,80.9,64.7,30.13,ESE,109,5.0,8.0,58,0.00,,,0.00,652,Wunderground v.1.15,2013-10-26 16:16:00,
2013-10-26 12:22:00,80.8,65.1,30.13,NE,50,5.0,6.0,59,0.00,,,0.00,858,Wunderground v.1.15,2013-10-26 16:22:00,
2013-10-26 12:28:00,81.2,65.5,30.13,East,101,5.0,7.0,59,0.00,,,0.00,568,Wunderground v.1.15,2013-10-26 16:28:00,
2013-10-26 12:34:00,81.0,65.3,30.13,East,91,5.0,7.0,59,0.00,,,0.00,413,Wunderground v.1.15,2013-10-26 16:34:00,
2013-10-26 12:40:00,80.9,65.7,30.13,ENE,74,3.0,7.0,60,0.00,,,0.00,798,Wunderground v.1.15,2013-10-26 16:40:00,
2013-10-26 12:46:00,81.3,65.6,30.13,East,85,3.0,7.0,59,0.00,,,0.00,837,Wunderground v.1.15,2013-10-26 16:46:00,
2013-10-26 12:52:00,81.3,65.1,30.12,NE,53,4.0,5.0,58,0.00,,,0.00,209,Wunderground v.1.15,2013-10-26 16:52:00,
2013-10-26 12:58:00,81.3,65.6,30.12,East,86,3.0,11.0,59,0.00,,,0.00,907,Wunderground v.1.15,2013-10-26 16:58:00,
2013-10-26 13:04:00,81.6,64.9,30.12,NNE,23,4.0,7.0,57,0.00,,,0.00,225,Wunderground v.1.15,2013-10-26 17:04:00,
2013-10-26 13:10:00,81.1,64.9,30.12,East,90,5.0,9.0,58,0.00,,,0.00,758,Wunderground v.1.15,2013-10-26 17:10:00,
2013-10-26 13:16:00,80.7,64.5,30.12,ENE,71,4.0,9.0,58,0.00,,,0.00,353,Wunderground v.1.15,2013-10-26 17:16:00,
2013-10-26 13:22:00,80.5,64.4,30.11,East,88,3.0,3.0,58,0.00,,,0.00,513,Wunderground v.1.15,2013-10-26 17:22:00,
2013-10-26 13:28:00,80.8,65.1,30.11,ENE,71,3.0,5.0,59,0.00,,,0.00,846,Wunderground v.1.15,2013-10-26 17:28:00,
2013-10-26 13:34:00,81.4,65.2,30.11,NE,51,3.0,6.0,58,0.00,,,0.00,803,Wunderground v.1.15,2013-10-26 17:34:00,
2013-10-26 13:40:00,81.4,65.2,30.11,NE,51,4.0,4.0,58,0.00,,,0.00,802,Wunderground v.1.15,2013-10-26 17:40:00,
2013-10-26 13:46:00,81.9,65.2,30.11,NNE,22,3.0,7.0,57,0.00,,,0.00,831,Wunderground v.1.15,2013-10-26 17:46:00,
2013-10-26 13:52:00,82.0,64.8,30.10,East,88,3.0,5.0,56,0.00,,,0.00,826,Wunderground v.1.15,2013-10-26 17:52:00,
2013-10-26 13:58:00,81.9,65.2,30.10,NE,34,4.0,10.0,57,0.00,,,0.00,810,Wunderground v.1.15,2013-10-26 17:58:00,
2013-10-26 14:04:00,82.3,65.5,30.10,ESE,109,2.0,7.0,57,0.00,,,0.00,872,Wunderground v.1.15,2013-10-26 18:04:00,
2013-10-26 14:10:00,82.1,65.9,30.10,North,9,3.0,5.0,58,0.00,,,0.00,856,Wunderground v.1.15,2013-10-26 18:10:00,
2013-10-26 14:16:00,82.1,65.4,30.09,ENE,60,3.0,8.0,57,0.00,,,0.00,759,Wunderground v.1.15,2013-10-26 18:16:00,
2013-10-26 14:22:00,82.3,66.0,30.08,NE,50,3.0,10.0,58,0.00,,,0.00,733,Wunderground v.1.15,2013-10-26 18:22:00,
2013-10-26 14:28:00,82.2,65.4,30.08,ENE,64,4.0,10.0,57,0.00,,,0.00,737,Wunderground v.1.15,2013-10-26 18:28:00,
2013-10-26 14:34:00,82.0,66.3,30.08,ENE,71,4.0,7.0,59,0.00,,,0.00,759,Wunderground v.1.15,2013-10-26 18:34:00,
2013-10-26 14:40:00,81.8,65.1,30.08,ENE,57,4.0,4.0,57,0.00,,,0.00,559,Wunderground v.1.15,2013-10-26 18:40:00,
2013-10-26 14:46:00,81.5,64.8,30.08,NE,41,4.0,11.0,57,0.00,,,0.00,274,Wunderground v.1.15,2013-10-26 18:46:00,
2013-10-26 14:52:00,81.0,64.3,30.07,East,91,4.0,4.0,57,0.00,,,0.00,744,Wunderground v.1.15,2013-10-26 18:52:00,
2013-10-26 14:58:00,81.1,65.4,30.07,NE,38,4.0,13.0,59,0.00,,,0.00,747,Wunderground v.1.15,2013-10-26 18:58:00,
2013-10-26 15:04:00,81.1,64.9,30.07,East,92,4.0,5.0,58,0.00,,,0.00,659,Wunderground v.1.15,2013-10-26 19:04:00,
2013-10-26 15:10:00,81.2,65.0,30.07,NE,42,4.0,6.0,58,0.00,,,0.00,663,Wunderground v.1.15,2013-10-26 19:10:00,
2013-10-26 15:16:00,81.4,65.2,30.08,North,10,4.0,6.0,58,0.00,,,0.00,661,Wunderground v.1.15,2013-10-26 19:16:00,
2013-10-26 15:22:00,81.4,65.2,30.07,ENE,76,3.0,3.0,58,0.00,,,0.00,364,Wunderground v.1.15,2013-10-26 19:22:00,
2013-10-26 15:28:00,81.4,65.7,30.07,East,91,3.0,10.0,59,0.00,,,0.00,599,Wunderground v.1.15,2013-10-26 19:28:00,
2013-10-26 15:34:00,81.7,65.5,30.07,NE,42,4.0,8.0,58,0.00,,,0.00,570,Wunderground v.1.15,2013-10-26 19:34:00,
2013-10-26 15:40:00,81.5,65.3,30.07,ENE,72,4.0,4.0,58,0.00,,,0.00,580,Wunderground v.1.15,2013-10-26 19:40:00,
2013-10-26 15:46:00,81.6,65.9,30.07,NNE,28,4.0,5.0,59,0.00,,,0.00,570,Wunderground v.1.15,2013-10-26 19:46:00,
2013-10-26 15:52:00,81.4,65.7,30.06,East,88,5.0,8.0,59,0.00,,,0.00,533,Wunderground v.1.15,2013-10-26 19:52:00,
2013-10-26 15:58:00,81.3,66.1,30.06,NNE,30,4.0,9.0,60,0.00,,,0.00,506,Wunderground v.1.15,2013-10-26 19:58:00,
2013-10-26 16:04:00,81.2,65.0,30.06,ENE,76,4.0,7.0,58,0.00,,,0.00,499,Wunderground v.1.15,2013-10-26 20:04:00,
2013-10-26 16:10:00,81.0,65.3,30.06,NNE,13,5.0,5.0,59,0.00,,,0.00,471,Wunderground v.1.15,2013-10-26 20:10:00,
2013-10-26 16:16:00,80.9,65.7,30.06,NNE,30,4.0,5.0,60,0.00,,,0.00,455,Wunderground v.1.15,2013-10-26 20:16:00,
2013-10-26 16:22:00,80.9,65.7,30.05,ENE,57,4.0,5.0,60,0.00,,,0.00,438,Wunderground v.1.15,2013-10-26 20:22:00,
2013-10-26 16:28:00,80.7,66.5,30.05,NE,38,4.0,7.0,62,0.00,,,0.00,287,Wunderground v.1.15,2013-10-26 20:28:00,
2013-10-26 16:34:00,80.4,65.7,30.05,ENE,68,4.0,8.0,61,0.00,,,0.00,199,Wunderground v.1.15,2013-10-26 20:34:00,
2013-10-26 16:40:00,80.0,65.8,30.05,NNE,29,4.0,4.0,62,0.00,,,0.00,413,Wunderground v.1.15,2013-10-26 20:40:00,
2013-10-26 16:46:00,80.2,66.0,30.05,NNE,18,2.0,4.0,62,0.00,,,0.00,364,Wunderground v.1.15,2013-10-26 20:46:00,
2013-10-26 16:52:00,80.3,66.1,30.05,ENE,60,3.0,7.0,62,0.00,,,0.00,325,Wunderground v.1.15,2013-10-26 20:52:00,
2013-10-26 16:58:00,80.0,65.3,30.05,North,9,4.0,10.0,61,0.00,,,0.00,320,Wunderground v.1.15,2013-10-26 20:58:00,
2013-10-26 17:04:00,79.9,64.8,30.06,NE,49,3.0,8.0,60,0.00,,,0.00,295,Wunderground v.1.15,2013-10-26 21:04:00,
2013-10-26 17:10:00,79.8,65.2,30.06,ENE,60,3.0,7.0,61,0.00,,,0.00,279,Wunderground v.1.15,2013-10-26 21:10:00,
2013-10-26 17:16:00,79.9,65.2,30.06,NE,51,2.0,8.0,61,0.00,,,0.00,244,Wunderground v.1.15,2013-10-26 21:16:00,
2013-10-26 17:22:00,79.8,65.2,30.06,ENE,67,4.0,10.0,61,0.00,,,0.00,62,Wunderground v.1.15,2013-10-26 21:22:00,
2013-10-26 17:28:00,79.7,65.1,30.06,NE,38,4.0,10.0,61,0.00,,,0.00,56,Wunderground v.1.15,2013-10-26 21:28:00,
2013-10-26 17:34:00,79.6,65.9,30.06,ENE,65,3.0,7.0,63,0.00,,,0.00,192,Wunderground v.1.15,2013-10-26 21:34:00,
2013-10-26 17:40:00,79.5,65.8,30.06,NE,46,3.0,3.0,63,0.00,,,0.00,167,Wunderground v.1.15,2013-10-26 21:40:00,
2013-10-26 17:46:00,79.5,65.3,30.06,NE,44,3.0,4.0,62,0.00,,,0.00,127,Wunderground v.1.15,2013-10-26 21:46:00,
2013-10-26 17:52:00,79.4,65.2,30.05,NE,41,2.0,3.0,62,0.00,,,0.00,105,Wunderground v.1.15,2013-10-26 21:52:00,
2013-10-26 17:58:00,79.2,65.1,30.06,NE,56,3.0,11.0,62,0.00,,,0.00,69,Wunderground v.1.15,2013-10-26 21:58:00,
2013-10-26 18:04:00,79.1,65.0,30.05,East,86,2.0,3.0,62,0.00,,,0.00,46,Wunderground v.1.15,2013-10-26 22:04:00,
2013-10-26 18:10:00,79.0,64.9,30.06,NE,51,1.0,1.0,62,0.00,,,0.00,40,Wunderground v.1.15,2013-10-26 22:10:00,
2013-10-26 18:16:00,78.9,64.8,30.06,ENE,78,1.0,3.0,62,0.00,,,0.00,30,Wunderground v.1.15,2013-10-26 22:16:00,
2013-10-26 18:22:00,78.8,64.7,30.06,NE,34,1.0,1.0,62,0.00,,,0.00,26,Wunderground v.1.15,2013-10-26 22:22:00,
2013-10-26 18:28:00,78.6,64.9,30.06,NE,48,1.0,4.0,63,0.00,,,0.00,19,Wunderground v.1.15,2013-10-26 22:28:00,
2013-10-26 18:34:00,78.5,64.9,30.06,NE,55,2.0,9.0,63,0.00,,,0.00,12,Wunderground v.1.15,2013-10-26 22:34:00,
2013-10-26 18:40:00,78.4,64.8,30.06,ENE,64,1.0,1.0,63,0.00,,,0.00,5,Wunderground v.1.15,2013-10-26 22:40:00,
2013-10-26 18:46:00,78.3,64.7,30.06,NE,49,1.0,5.0,63,0.00,,,0.00,0,Wunderground v.1.15,2013-10-26 22:46:00,
2013-10-26 18:52:00,78.2,64.6,30.06,NE,56,1.0,2.0,63,0.00,,,0.00,0,Wunderground v.1.15,2013-10-26 22:52:00,
2013-10-26 18:58:00,78.0,64.8,30.06,NE,55,0.0,9.0,64,0.00,,,0.00,0,Wunderground v.1.15,2013-10-26 22:58:00,
2013-10-26 19:04:00,77.9,64.7,30.07,ENE,59,0.0,2.0,64,0.00,,,0.00,0,Wunderground v.1.15,2013-10-26 23:04:00,
2013-10-26 19:10:00,77.8,64.6,30.07,NE,46,1.0,1.0,64,0.00,,,0.00,0,Wunderground v.1.15,2013-10-26 23:10:00,
2013-10-26 19:16:00,77.8,64.2,30.07,ENE,57,1.0,1.0,63,0.00,,,0.00,0,Wunderground v.1.15,2013-10-26 23:16:00,
2013-10-26 19:22:00,77.8,64.2,30.07,ENE,61,0.0,1.0,63,0.00,,,0.00,0,Wunderground v.1.15,2013-10-26 23:22:00,
2013-10-26 19:28:00,77.6,64.5,30.07,ENE,78,0.0,1.0,64,0.00,,,0.00,0,Wunderground v.1.15,2013-10-26 23:28:00,
2013-10-26 19:34:00,77.5,64.4,30.07,East,80,0.0,0.0,64,0.00,,,0.00,0,Wunderground v.1.15,2013-10-26 23:34:00,
2013-10-26 19:40:00,77.4,64.3,30.07,NE,50,0.0,0.0,64,0.00,,,0.00,0,Wunderground v.1.15,2013-10-26 23:40:00,
2013-10-26 19:46:00,77.3,64.2,30.07,NE,48,0.0,0.0,64,0.00,,,0.00,0,Wunderground v.1.15,2013-10-26 23:46:00,
2013-10-26 19:52:00,77.1,64.0,30.07,NNE,30,0.0,0.0,64,0.00,,,0.00,0,Wunderground v.1.15,2013-10-26 23:52:00,
2013-10-26 19:58:00,77.0,64.3,30.07,NE,46,0.0,0.0,65,0.00,,,0.00,0,Wunderground v.1.15,2013-10-26 23:58:00,
2013-10-26 20:04:00,76.9,64.2,30.07,NNE,25,0.0,0.0,65,0.00,,,0.00,0,Wunderground v.1.15,2013-10-27 00:04:00,
2013-10-26 20:10:00,76.9,63.8,30.07,NE,54,0.0,0.0,64,0.00,,,0.00,0,Wunderground v.1.15,2013-10-27 00:10:00,
2013-10-26 20:16:00,76.9,64.2,30.07,East,88,0.0,0.0,65,0.00,,,0.00,0,Wunderground v.1.15,2013-10-27 00:16:00,
2013-10-26 20:22:00,76.8,64.1,30.08,NE,48,0.0,0.0,65,0.00,,,0.00,0,Wunderground v.1.15,2013-10-27 00:22:00,
2013-10-26 20:28:00,76.8,64.1,30.08,NE,34,0.0,0.0,65,0.00,,,0.00,0,Wunderground v.1.15,2013-10-27 00:28:00,
2013-10-26 20:34:00,76.8,63.7,30.08,NE,55,1.0,1.0,64,0.00,,,0.00,0,Wunderground v.1.15,2013-10-27 00:34:00,
2013-10-26 20:40:00,76.8,63.7,30.08,NNE,30,0.0,0.0,64,0.00,,,0.00,0,Wunderground v.1.15,2013-10-27 00:40:00,
2013-10-26 20:46:00,76.7,63.6,30.08,NNE,26,0.0,0.0,64,0.00,,,0.00,0,Wunderground v.1.15,2013-10-27 00:46:00,
2013-10-26 20:52:00,76.8,63.7,30.09,NNE,29,0.0,0.0,64,0.00,,,0.00,0,Wunderground v.1.15,2013-10-27 00:52:00,
2013-10-26 20:58:00,76.9,63.8,30.09,NE,51,0.0,3.0,64,0.00,,,0.00,0,Wunderground v.1.15,2013-10-27 00:58:00,
2013-10-26 21:04:00,76.9,63.8,30.09,NE,50,0.0,0.0,64,0.00,,,0.00,0,Wunderground v.1.15,2013-10-27 01:04:00,
2013-10-26 21:10:00,76.6,63.5,30.09,NE,47,0.0,0.0,64,0.00,,,0.00,0,Wunderground v.1.15,2013-10-27 01:10:00,
2013-10-26 21:16:00,76.4,63.3,30.09,NE,46,0.0,0.0,64,0.00,,,0.00,0,Wunderground v.1.15,2013-10-27 01:16:00,
2013-10-26 21:22:00,76.2,63.6,30.09,NE,46,0.0,0.0,65,0.00,,,0.00,0,Wunderground v.1.15,2013-10-27 01:22:00,
2013-10-26 21:28:00,76.0,63.4,30.09,NE,45,0.0,0.0,65,0.00,,,0.00,0,Wunderground v.1.15,2013-10-27 01:28:00,
2013-10-26 21:34:00,75.8,63.2,30.09,NE,46,0.0,0.0,65,0.00,,,0.00,0,Wunderground v.1.15,2013-10-27 01:34:00,
2013-10-26 21:40:00,75.6,63.0,30.10,NE,46,0.0,0.0,65,0.00,,,0.00,0,Wunderground v.1.15,2013-10-27 01:40:00,
2013-10-26 21:46:00,75.5,62.9,30.10,NE,45,0.0,0.0,65,0.00,,,0.00,0,Wunderground v.1.15,2013-10-27 01:46:00,
2013-10-26 21:52:00,75.4,63.2,30.10,NE,46,0.0,0.0,66,0.00,,,0.00,0,Wunderground v.1.15,2013-10-27 01:52:00,
2013-10-26 21:58:00,75.3,63.2,30.10,NE,46,0.0,7.0,66,0.00,,,0.00,0,Wunderground v.1.15,2013-10-27 01:58:00,
2013-10-26 22:04:00,75.3,62.7,30.10,NE,46,0.0,0.0,65,0.00,,,0.00,0,Wunderground v.1.15,2013-10-27 02:04:00,
2013-10-26 22:10:00,75.4,62.8,30.10,NE,44,0.0,0.0,65,0.00,,,0.00,0,Wunderground v.1.15,2013-10-27 02:10:00,
2013-10-26 22:16:00,75.4,63.2,30.09,NE,44,0.0,0.0,66,0.00,,,0.00,0,Wunderground v.1.15,2013-10-27 02:16:00,
2013-10-26 22:22:00,75.3,63.2,30.09,NE,45,0.0,0.0,66,0.00,,,0.00,0,Wunderground v.1.15,2013-10-27 02:22:00,
2013-10-26 22:28:00,75.5,63.3,30.09,NE,45,0.0,0.0,66,0.00,,,0.00,0,Wunderground v.1.15,2013-10-27 02:28:00,
2013-10-26 22:34:00,75.6,63.4,30.09,NE,45,0.0,0.0,66,0.00,,,0.00,0,Wunderground v.1.15,2013-10-27 02:34:00,
2013-10-26 22:40:00,75.5,63.3,30.09,NE,46,0.0,0.0,66,0.00,,,0.00,0,Wunderground v.1.15,2013-10-27 02:40:00,
2013-10-26 22:46:00,75.4,63.2,30.09,NE,46,0.0,0.0,66,0.00,,,0.00,0,Wunderground v.1.15,2013-10-27 02:46:00,
2013-10-26 22:52:00,75.3,63.2,30.09,ENE,61,0.0,0.0,66,0.00,,,0.00,0,Wunderground v.1.15,2013-10-27 02:52:00,
2013-10-26 22:58:00,75.4,63.2,30.09,NNE,29,0.0,0.0,66,0.00,,,0.00,0,Wunderground v.1.15,2013-10-27 02:58:00,
2013-10-26 23:04:00,75.4,63.2,30.09,NNE,30,0.0,0.0,66,0.00,,,0.00,0,Wunderground v.1.15,2013-10-27 03:04:00,
2013-10-26 23:10:00,75.3,63.6,30.08,NNE,33,0.0,0.0,67,0.00,,,0.00,0,Wunderground v.1.15,2013-10-27 03:10:00,
2013-10-26 23:16:00,75.2,63.5,30.08,North,5,0.0,0.0,67,0.00,,,0.00,0,Wunderground v.1.15,2013-10-27 03:16:00,
2013-10-26 23:22:00,75.3,63.6,30.08,ENE,61,0.0,0.0,67,0.00,,,0.00,0,Wunderground v.1.15,2013-10-27 03:22:00,
2013-10-26 23:28:00,75.4,63.7,30.08,ENE,61,0.0,0.0,67,0.00,,,0.00,0,Wunderground v.1.15,2013-10-27 03:28:00,
2013-10-26 23:34:00,75.3,63.6,30.08,ENE,61,0.0,0.0,67,0.00,,,0.00,0,Wunderground v.1.15,2013-10-27 03:34:00,
2013-10-26 23:40:00,75.3,63.6,30.08,NNE,29,0.0,0.0,67,0.00,,,0.00,0,Wunderground v.1.15,2013-10-27 03:40:00,
2013-10-26 23:46:00,75.4,63.2,30.08,NNE,28,0.0,0.0,66,0.00,,,0.00,0,Wunderground v.1.15,2013-10-27 03:46:00,
2013-10-26 23:52:00,75.5,62.9,30.07,ENE,57,0.0,0.0,65,0.00,,,0.00,0,Wunderground v.1.15,2013-10-27 03:52:00,
2013-10-26 23:58:00,75.6,63.0,30.07,NNE,24,0.0,4.0,65,0.00,,,0.00,0,Wunderground v.1.15,2013-10-27 03:58:00,